Quincy, IL

8:13 AM CDT on July 29, 2017 (GMT -0500)
Quincy Regional-Baldwin

Weather History for KUIN - September, 2012

Change the Weather History Date:

Saturday, September 15, 2012

  Actual Average Record
Temperature  
Mean Temperature 62 °F 67 °F  
Max Temperature 74 °F 78 °F 100 °F (1939)
Min Temperature 49 °F 56 °F 37 °F (2007)
Degree Days  
Heating Degree Days 3 2  
Month to date heating degree days 17 18  
Since 1 July heating degree days 17 23  
Cooling Degree Days 0 4  
Month to date cooling degree days 102 84  
Year to date cooling degree days 1549 1037  
Growing Degree Days 12 (Base 50)    
Moisture  
Dew Point 47 °F    
Average Humidity 62    
Maximum Humidity 86    
Minimum Humidity 38    
Precipitation  
Precipitation 0.00 in 0.11 in 2.83 in (1915)
Month to date precipitation 1.34 1.65  
Year to date precipitation 16.97 27.40  
Sea Level Pressure  
Sea Level Pressure 30.25 in    
Wind  
Wind Speed 5 mph (SE)    
Max Wind Speed 13 mph    
Max Gust Speed 20 mph    
Visibility 10 miles    
Events      
T = Trace of Precipitation, MM = Missing Value Source: NWS Daily Summary

Daily Weather History Graph

Daily Weather History Graph

Search for Another Location

Airport or City:

Trip Planner

Search our weather history database for the weather conditions in past years. The results will help you decide how hot, cold, wet, or windy it might be!

Date:

Astronomy

Sep. 15, 2012 Rise Set
Actual Time 6:46 AM CDT 7:12 PM CDT
Civil Twilight 6:19 AM CDT 7:39 PM CDT
Nautical Twilight 5:47 AM CDT 8:11 PM CDT
Astronomical Twilight 5:14 AM CDT 8:44 PM CDT
Moon 6:17 AM CDT (9/15) 6:43 PM CDT (9/15)
Length of Visible Light 13h 20m
Length of Day
12h 26m
Waning Crescent, 0% of the Moon is Illuminated
Sep 15
Waning Crescent
Sep 15
New
Sep 22
First Quarter
Sep 29
Full
Oct 8
Last Quarter

Hourly Weather History & Observations

Time (CDT) Temp. Dew Point Humidity Pressure Visibility Wind Dir Wind Speed Gust Speed Precip Events Conditions
12:54 AM 57.0 °F 45.0 °F 64% 30.31 in 10.0 mi Calm Calm - N/A   Clear
1:54 AM 53.1 °F 46.9 °F 80% 30.32 in 10.0 mi Calm Calm - N/A   Clear
2:54 AM 53.1 °F 46.9 °F 80% 30.30 in 10.0 mi Calm Calm - N/A   Clear
3:54 AM 52.0 °F 45.0 °F 77% 30.30 in 10.0 mi ENE 4.6 mph - N/A   Clear
4:54 AM 50.0 °F 46.0 °F 86% 30.30 in 10.0 mi East 4.6 mph - N/A   Clear
5:54 AM 50.0 °F 46.0 °F 86% 30.30 in 10.0 mi ENE 3.5 mph - N/A   Clear
6:54 AM 53.1 °F 45.0 °F 74% 30.31 in 10.0 mi East 4.6 mph - N/A   Clear
7:54 AM 55.0 °F 46.0 °F 72% 30.31 in 10.0 mi ESE 5.8 mph - N/A   Clear
8:54 AM 61.0 °F 48.9 °F 64% 30.32 in 10.0 mi SE 5.8 mph - N/A   Clear
9:54 AM 66.9 °F 51.1 °F 57% 30.31 in 10.0 mi SE 6.9 mph - N/A   Clear
10:54 AM 70.0 °F 50.0 °F 49% 30.29 in 10.0 mi SE 8.1 mph - N/A   Clear
11:54 AM 70.0 °F 48.9 °F 47% 30.27 in 10.0 mi SE 8.1 mph - N/A   Clear
12:54 PM 73.0 °F 46.0 °F 38% 30.26 in 10.0 mi SSE 10.4 mph - N/A   Clear
1:54 PM 73.0 °F 46.9 °F 39% 30.25 in 10.0 mi SSW 10.4 mph - N/A   Clear
2:54 PM 72.0 °F 46.9 °F 41% 30.22 in 10.0 mi SSE 10.4 mph - N/A   Clear
3:54 PM 72.0 °F 46.9 °F 41% 30.20 in 10.0 mi South 5.8 mph - N/A   Clear
4:54 PM 71.1 °F 48.0 °F 44% 30.19 in 10.0 mi South 3.5 mph - N/A   Clear
5:54 PM 71.1 °F 46.9 °F 42% 30.18 in 10.0 mi South 6.9 mph - N/A   Clear
6:54 PM 66.9 °F 48.9 °F 52% 30.17 in 10.0 mi South 3.5 mph - N/A   Clear
8:54 PM 62.1 °F 46.9 °F 58% 30.17 in 10.0 mi Calm Calm - N/A   Clear
9:54 PM 59.0 °F 48.0 °F 67% 30.17 in 10.0 mi SSE 3.5 mph - N/A   Clear
10:54 PM 57.9 °F 48.0 °F 70% 30.16 in 10.0 mi SSE 3.5 mph - N/A   Clear
11:54 PM 57.9 °F 46.9 °F 67% 30.15 in 10.0 mi SSE 3.5 mph - N/A   Clear